CZ-6A DEB

Satellite information

Favourite Embed

Satellite Type and Status

DEBRISIN ORBIT

Key statistics

Satellite CZ-6A DEB at a glance.

Uptime

1073

Days in orbit

Revolutions

≈ 14.6

Per day

Orbit

SSO

Sun Synchronous Orbit

Inclination

98.6

Latest

Satellite identification and parameters

Extended collection of information and parameters for CZ-6A DEB.

Object identification

Identified? True

Debris? True

Object name: CZ-6A DEB

International designator: 2022-151ZA

Object number (NORAD): 55552

Object ID (CCSDS): 55552

Country: PEOPLES REPUBLIC OF CHINA (PRC)

Current information (Y/N): Y

RCS size: SMALL

Orbital parameters

Period: 98.57 minutes

Inclination: 98.6376 deg

SMA: 7068.45 km

Apoapsis: 744.541 km

Periapsis: 636.088 km

RAAN: 334.1937 deg

Eccentricy: 0.00767169

Argument of periapsis: 332.3716 deg

Mean anomaly: 27.3416 deg

Mean motion: 14.60886642 rev/day

Mean motion (dot): 0.00022999 rev/day2

B* drag term: 0.004505937 1/REarth

Two-line elements (TLE)

Creation date: Oct. 19, 2025, 2:20 a.m.

Reference frame: TEME

Reference center: EARTH

Epoch: Oct. 18, 2025, 8:05 p.m. UTC

TLE line 0: 0 CZ-6A DEB

TLE line 1: 1 55552U 22151ZA 25291.83710727 .00022999 00000-0 45059-2 0 9993

TLE line 2: 2 55552 98.6376 334.1937 0076717 332.3716 27.3416 14.60886642148209

Live tracking on map

Real-time ground track for satellite CZ-6A DEB.

In-orbit conjunctions

A list of the most updated potential collisions computed for object CZ-6A DEB.

Target Orbit TCA Probability of collision Miss distance Type
IRIDIUM 63 LEO 2025-03-06 00:54:24 0.0002777574 268.0 (m) PAYLOAD
COSMOS 1937 LEO 2024-10-25 15:06:08 0.0001657097 613.0 (m) PAYLOAD

Associated space launch

Chinese satellite reported for atmospheric/ocean/environmental/spatial parameter research purposes, details TBD.

CZ-6A DEB was lifted into orbit during the mission ‘Long March 6A | Yunhai 3’, on board a Long March 6A space rocket.

The launch took place on Nov. 11, 2022, 10:52 p.m. from Launch Complex 9A.

For more information about the launch, click the button.

Launch to space Long March 6A | Yunhai 3
Long March 6A | Yunhai 3

Agency: N/A

Status: Launch Successful

Launch date: Nov. 11, 2022, 10:52 p.m. UTC

Rocket: Long March 6A

Launch pad: Launch Complex 9A

Location: Taiyuan Satellite Launch Center, People's Republic of China

...

Latest news about this satellite

There are no fresh news available about this satellite. Check back as we update our databases every day.


Newsletter sign-up

Weekly statistics, charts and insights to help you stay on top of the space industry.